| time (UTC) | temp F | wind direction | speed knots | gust knots | rain 1hr in | rain 24hr in | rain mn in | humidity % | barometer mb |
| 20260502232205 | 56 | 270 | 2.6 | 2.6 | 0.00 | 0.00 | 0.00 | 45 | 1015.5 |
| 20260502231701 | 55 | 106 | 0.0 | 0.9 | 0.00 | 0.00 | 0.00 | 45 | 1015.9 |
| 20260502231159 | 55 | 114 | 0.9 | 0.9 | 0.00 | 0.00 | 0.00 | 49 | 1015.7 |
| 20260502230658 | 55 | 90 | 0.0 | 0.9 | 0.00 | 0.00 | 0.00 | 46 | 1015.8 |
| 20260502230156 | 56 | 314 | 1.7 | 1.7 | 0.00 | 0.00 | 0.00 | 45 | 1015.9 |
| 20260502225651 | 56 | 253 | 0.9 | 2.6 | 0.00 | 0.00 | 0.00 | 42 | 1015.9 |
| 20260502225149 | 56 | 77 | 0.9 | 1.7 | 0.00 | 0.00 | 0.00 | 45 | 1016.0 |
| 20260502224644 | 56 | 54 | 2.6 | 4.3 | 0.00 | 0.00 | 0.00 | 44 | 1016.1 |
| 20260502224141 | 56 | 94 | 0.9 | 1.7 | 0.00 | 0.00 | 0.00 | 44 | 1016.0 |
| 20260502223639 | 57 | 31 | 1.7 | 2.6 | 0.00 | 0.00 | 0.00 | 46 | 1016.0 |
| 20260502223137 | 57 | 259 | 2.6 | 4.3 | 0.00 | 0.00 | 0.00 | 41 | 1016.0 |
| 20260502222634 | 57 | 79 | 0.9 | 1.7 | 0.00 | 0.00 | 0.00 | 43 | 1015.8 |
| 20260502222131 | 56 | 126 | 1.7 | 2.6 | 0.00 | 0.00 | 0.00 | 42 | 1015.9 |
| 20260502221627 | 59 | 75 | 1.7 | 4.3 | 0.00 | 0.00 | 0.00 | 41 | 1016.0 |
| 20260502221124 | 57 | 87 | 1.7 | 2.6 | 0.00 | 0.00 | 0.00 | 44 | 1016.0 |
| 20260502220620 | 55 | 186 | 0.9 | 0.9 | 0.00 | 0.00 | 0.00 | 44 | 1016.1 |
| 20260502220116 | 56 | 54 | 0.9 | 4.3 | 0.00 | 0.00 | 0.00 | 44 | 1016.2 |
| 20260502215614 | 57 | 173 | 0.9 | 1.7 | 0.00 | 0.00 | 0.00 | 44 | 1016.0 |
| 20260502215110 | 57 | 136 | 1.7 | 1.7 | 0.00 | 0.00 | 0.00 | 42 | 1016.1 |
| 20260502214607 | 57 | 23 | 2.6 | 2.6 | 0.00 | 0.00 | 0.00 | 44 | 1016.0 |
| 20260502214105 | 56 | 299 | 2.6 | 2.6 | 0.00 | 0.00 | 0.00 | 43 | 1016.3 |
| 20260502213602 | 58 | 27 | 1.7 | 2.6 | 0.00 | 0.00 | 0.00 | 46 | 1016.1 |
| 20260502213059 | 56 | 96 | 0.9 | 0.9 | 0.00 | 0.00 | 0.00 | 45 | 1016.2 |
| 20260502212558 | 56 | 210 | 1.7 | 2.6 | 0.00 | 0.00 | 0.00 | 44 | 1016.3 |
| 20260502212055 | 57 | 103 | 0.9 | 4.3 | 0.00 | 0.00 | 0.00 | 46 | 1016.2 |
| 20260502211550 | 55 | 2 | 0.9 | 1.7 | 0.00 | 0.00 | 0.00 | 45 | 1016.4 |
| 20260502211048 | 55 | 143 | 1.7 | 5.2 | 0.00 | 0.00 | 0.00 | 42 | 1016.3 |
| 20260502210545 | 55 | 154 | 1.7 | 4.3 | 0.00 | 0.00 | 0.00 | 43 | 1016.3 |
| 20260502210042 | 55 | 88 | 0.9 | 1.7 | 0.00 | 0.00 | 0.00 | 43 | 1016.4 |
| 20260502205538 | 55 | 37 | 2.6 | 2.6 | 0.00 | 0.00 | 0.00 | 44 | 1016.4 |
| 20260502205036 | 55 | 275 | 1.7 | 4.3 | 0.00 | 0.00 | 0.00 | 44 | 1016.6 |
| 20260502204532 | 57 | 60 | 0.9 | 2.6 | 0.00 | 0.00 | 0.00 | 46 | 1016.6 |
| 20260502204030 | 57 | 269 | 1.7 | 2.6 | 0.00 | 0.00 | 0.00 | 40 | 1016.5 |
| 20260502203527 | 57 | 38 | 1.7 | 4.3 | 0.00 | 0.00 | 0.00 | 45 | 1016.7 |
| 20260502203024 | 57 | 269 | 2.6 | 4.3 | 0.00 | 0.00 | 0.00 | 44 | 1016.7 |
| 20260502202520 | 57 | 57 | 2.6 | 4.3 | 0.00 | 0.00 | 0.00 | 42 | 1016.7 |
| 20260502202019 | 54 | 109 | 0.9 | 4.3 | 0.00 | 0.00 | 0.00 | 47 | 1017.1 |
| 20260502201514 | 56 | 102 | 0.0 | 1.7 | 0.00 | 0.00 | 0.00 | 46 | 1017.1 |
| 20260502201011 | 57 | 42 | 1.7 | 2.6 | 0.00 | 0.00 | 0.00 | 45 | 1017.0 |
| 20260502200507 | 56 | 46 | 2.6 | 6.1 | 0.00 | 0.00 | 0.00 | 45 | 1017.1 |
| 20260502200005 | 58 | 272 | 2.6 | 2.6 | 0.00 | 0.00 | 0.00 | 43 | 1017.0 |
| 20260502195502 | 57 | 137 | 0.9 | 0.9 | 0.00 | 0.00 | 0.00 | 43 | 1017.1 |
| 20260502194958 | 55 | 19 | 3.5 | 4.3 | 0.00 | 0.00 | 0.00 | 46 | 1017.4 |
| 20260502194455 | 54 | 106 | 0.9 | 1.7 | 0.00 | 0.00 | 0.00 | 52 | 1017.4 |
| 20260502193950 | 55 | 345 | 2.6 | 2.6 | 0.00 | 0.00 | 0.00 | 47 | 1017.8 |
| 20260502193448 | 55 | 171 | 3.5 | 5.2 | 0.00 | 0.00 | 0.00 | 45 | 1017.6 |
| 20260502192944 | 53 | 72 | 0.9 | 0.9 | 0.00 | 0.00 | 0.00 | 52 | 1017.6 |
| 20260502192441 | 52 | 261 | 2.6 | 2.6 | 0.00 | 0.00 | 0.00 | 51 | 1017.6 |
| 20260502191938 | 52 | 21 | 1.7 | 2.6 | 0.00 | 0.00 | 0.00 | 49 | 1017.7 |
| 20260502191435 | 52 | 32 | 1.7 | 2.6 | 0.00 | 0.00 | 0.00 | 49 | 1017.9 |
| 20260502190933 | 53 | 356 | 2.6 | 2.6 | 0.00 | 0.00 | 0.00 | 46 | 1017.8 |
| 20260502190430 | 54 | 40 | 1.7 | 4.3 | 0.00 | 0.00 | 0.00 | 44 | 1017.8 |
| 20260502185926 | 57 | 291 | 2.6 | 2.6 | 0.00 | 0.00 | 0.00 | 46 | 1017.7 |
| 20260502185421 | 57 | 64 | 0.9 | 2.6 | 0.00 | 0.00 | 0.00 | 45 | 1017.9 |
| 20260502184919 | 54 | 96 | 1.7 | 5.2 | 0.00 | 0.00 | 0.00 | 50 | 1018.2 |
| 20260502184414 | 55 | 114 | 0.9 | 1.7 | 0.00 | 0.00 | 0.00 | 49 | 1017.9 |
| 20260502183911 | 56 | 5 | 4.3 | 5.2 | 0.00 | 0.00 | 0.00 | 44 | 1018.4 |
| 20260502183407 | 53 | 60 | 1.7 | 2.6 | 0.00 | 0.00 | 0.00 | 51 | 1018.3 |
| 20260502182903 | 53 | 327 | 2.6 | 2.6 | 0.00 | 0.00 | 0.00 | 51 | 1018.3 |
| 20260502182358 | 53 | 28 | 2.6 | 2.6 | 0.00 | 0.00 | 0.00 | 44 | 1018.4 |
| 20260502181855 | 52 | 26 | 3.5 | 7.0 | 0.00 | 0.00 | 0.00 | 45 | 1018.5 |
| 20260502181354 | 53 | 1 | 4.3 | 5.2 | 0.00 | 0.00 | 0.00 | 45 | 1018.3 |
| 20260502180851 | 55 | 321 | 4.3 | 5.2 | 0.00 | 0.00 | 0.00 | 42 | 1018.6 |
| 20260502180348 | 53 | 54 | 3.5 | 6.1 | 0.00 | 0.00 | 0.00 | 46 | 1018.5 |
| 20260502170307 | 54 | 37 | 1.7 | 1.7 | 0.00 | 0.00 | 0.00 | 48 | 1019.0 |
| 20260502164255 | 53 | 326 | 2.6 | 4.3 | 0.00 | 0.00 | 0.00 | 51 | 1019.0 |
| 20260502163750 | 53 | 65 | 1.7 | 4.3 | 0.00 | 0.00 | 0.00 | 45 | 1018.9 |
| 20260502163247 | 53 | 102 | 0.9 | 4.3 | 0.00 | 0.00 | 0.00 | 52 | 1019.1 |
| 20260502162744 | 54 | 84 | 0.0 | 1.7 | 0.00 | 0.00 | 0.00 | 49 | 1019.0 |
| 20260502162241 | 52 | 129 | 1.7 | 2.6 | 0.00 | 0.00 | 0.00 | 44 | 1019.2 |
| 20260502161737 | 53 | 17 | 3.5 | 5.2 | 0.00 | 0.00 | 0.00 | 46 | 1019.2 |
| 20260502161233 | 51 | 95 | 0.9 | 2.6 | 0.00 | 0.00 | 0.00 | 49 | 1019.3 |
| 20260502160732 | 50 | 44 | 0.9 | 2.6 | 0.00 | 0.00 | 0.00 | 50 | 1019.4 |
| 20260502160231 | 51 | 275 | 2.6 | 5.2 | 0.00 | 0.00 | 0.00 | 53 | 1019.3 |
| 20260502152155 | 50 | 129 | 0.9 | 1.7 | 0.00 | 0.00 | 0.00 | 51 | 1019.3 |
| 20260502151652 | 49 | 281 | 1.7 | 4.3 | 0.00 | 0.00 | 0.00 | 50 | 1019.5 |
| 20260502151149 | 50 | 50 | 2.6 | 2.6 | 0.00 | 0.00 | 0.00 | 52 | 1019.4 |
| 20260502150647 | 51 | 104 | 0.9 | 2.6 | 0.00 | 0.00 | 0.00 | 52 | 1019.4 |
| 20260502150143 | 49 | 339 | 0.9 | 1.7 | 0.00 | 0.00 | 0.00 | 51 | 1019.3 |
| 20260502140106 | 46 | 42 | 1.7 | 2.6 | 0.00 | 0.00 | 0.00 | 66 | 1019.7 |
| 20260502130532 | 38 | 116 | 0.0 | 0.0 | 0.00 | 0.00 | 0.00 | 98 | 1019.4 |
| 20260502123515 | 35 | 82 | 0.0 | 0.0 | 0.00 | 0.00 | 0.00 | 99 | 1019.4 |
| 20260502123011 | 35 | 88 | 0.0 | 0.0 | 0.00 | 0.00 | 0.00 | 99 | 1019.4 |
| 20260502122508 | 34 | 89 | 0.0 | 0.9 | 0.00 | 0.00 | 0.00 | 99 | 1019.3 |
| 20260502122006 | 34 | 95 | 0.0 | 0.0 | 0.00 | 0.00 | 0.00 | 99 | 1019.3 |
| 20260502121503 | 33 | 92 | 0.0 | 0.0 | 0.00 | 0.00 | 0.00 | 99 | 1019.2 |
| 20260502121000 | 33 | 99 | 0.0 | 0.0 | 0.00 | 0.00 | 0.00 | 99 | 1019.2 |
| 20260502120456 | 32 | 97 | 0.0 | 0.0 | 0.00 | 0.00 | 0.00 | 99 | 1019.1 |
| 20260502115450 | 32 | 98 | 0.0 | 0.0 | 0.00 | 0.00 | 0.00 | 99 | 1019.2 |
| 20260502114946 | 32 | 97 | 0.0 | 0.0 | 0.00 | 0.00 | 0.00 | 99 | 1019.2 |
| 20260502114443 | 31 | 96 | 0.0 | 0.0 | 0.00 | 0.00 | 0.00 | 99 | 1018.9 |
| 20260502113941 | 30 | 96 | 0.0 | 0.0 | 0.00 | 0.00 | 0.00 | 99 | 1018.8 |
| 20260502113438 | 30 | 94 | 0.0 | 0.0 | 0.00 | 0.00 | 0.00 | 99 | 1018.8 |
| 20260502112937 | 30 | 99 | 0.0 | 0.0 | 0.00 | 0.00 | 0.00 | 99 | 1018.9 |
| 20260502112434 | 30 | 99 | 0.0 | 0.0 | 0.00 | 0.00 | 0.00 | 99 | 1019.0 |
| 20260502111931 | 29 | 99 | 0.0 | 0.0 | 0.00 | 0.00 | 0.00 | 99 | 1018.6 |
| 20260502111428 | 29 | 99 | 0.0 | 0.0 | 0.00 | 0.00 | 0.00 | 99 | 1018.7 |
| 20260502110926 | 29 | 99 | 0.0 | 0.0 | 0.00 | 0.00 | 0.00 | 99 | 1018.8 |
| 20260502110423 | 29 | 97 | 0.0 | 0.0 | 0.00 | 0.00 | 0.00 | 99 | 1018.6 |
| 20260502105920 | 29 | 98 | 0.0 | 0.0 | 0.00 | 0.00 | 0.00 | 99 | 1018.8 |
| 20260502105417 | 29 | 98 | 0.0 | 0.0 | 0.00 | 0.00 | 0.00 | 99 | 1018.8 |
| 20260502104915 | 29 | 97 | 0.0 | 0.0 | 0.00 | 0.00 | 0.00 | 99 | 1018.6 |
| 20260502104407 | 29 | 96 | 0.0 | 0.0 | 0.00 | 0.00 | 0.00 | 99 | 1018.4 |
| 20260502103904 | 29 | 96 | 0.0 | 0.0 | 0.00 | 0.00 | 0.00 | 99 | 1018.5 |
| 20260502103402 | 29 | 96 | 0.0 | 0.0 | 0.00 | 0.00 | 0.00 | 99 | 1018.7 |
| 20260502102858 | 29 | 96 | 0.0 | 0.0 | 0.00 | 0.00 | 0.00 | 99 | 1018.7 |
| 20260502102355 | 29 | 94 | 0.0 | 0.0 | 0.00 | 0.00 | 0.00 | 99 | 1018.6 |
| 20260502101852 | 29 | 94 | 0.0 | 0.0 | 0.00 | 0.00 | 0.00 | 99 | 1018.6 |
| 20260502101351 | 29 | 95 | 0.0 | 0.0 | 0.00 | 0.00 | 0.00 | 99 | 1018.6 |
| 20260502100849 | 29 | 96 | 0.0 | 0.0 | 0.00 | 0.00 | 0.00 | 99 | 1018.7 |
| 20260502100348 | 29 | 96 | 0.0 | 0.0 | 0.00 | 0.00 | 0.00 | 99 | 1018.7 |
| 20260502091321 | 30 | 94 | 0.0 | 0.0 | 0.00 | 0.00 | 0.00 | 99 | 1018.6 |
| 20260502090819 | 30 | 97 | 0.0 | 0.0 | 0.00 | 0.00 | 0.00 | 99 | 1018.5 |
| 20260502090315 | 29 | 94 | 0.0 | 0.0 | 0.00 | 0.00 | 0.00 | 99 | 1018.6 |
| 20260502071211 | 30 | 101 | 0.0 | 0.0 | 0.00 | 0.00 | 0.00 | 99 | 1018.5 |
| 20260502070709 | 30 | 102 | 0.0 | 0.0 | 0.00 | 0.00 | 0.00 | 99 | 1018.7 |
| 20260502070206 | 31 | 93 | 0.0 | 0.0 | 0.00 | 0.00 | 0.00 | 99 | 1018.7 |
| 20260502065705 | 31 | 99 | 0.0 | 0.0 | 0.00 | 0.00 | 0.00 | 99 | 1018.7 |
| 20260502065202 | 31 | 99 | 0.0 | 0.0 | 0.00 | 0.00 | 0.00 | 99 | 1018.9 |
| 20260502064701 | 31 | 93 | 0.0 | 0.0 | 0.00 | 0.00 | 0.00 | 99 | 1018.7 |
| 20260502064157 | 31 | 103 | 0.0 | 0.0 | 0.00 | 0.00 | 0.00 | 99 | 1018.9 |
| 20260502063655 | 31 | 98 | 0.0 | 0.0 | 0.00 | 0.00 | 0.00 | 98 | 1018.9 |
| 20260502063153 | 31 | 95 | 0.0 | 0.0 | 0.00 | 0.00 | 0.00 | 98 | 1019.1 |
| 20260502062650 | 31 | 98 | 0.0 | 0.0 | 0.00 | 0.00 | 0.00 | 98 | 1018.8 |
| 20260502062147 | 31 | 90 | 0.0 | 0.0 | 0.00 | 0.00 | 0.00 | 98 | 1019.1 |
| 20260502061645 | 31 | 95 | 0.0 | 0.0 | 0.00 | 0.00 | 0.00 | 98 | 1019.0 |
| 20260502061143 | 32 | 95 | 0.0 | 0.0 | 0.00 | 0.00 | 0.00 | 98 | 1018.8 |
| 20260502060643 | 31 | 94 | 0.0 | 0.0 | 0.00 | 0.00 | 0.00 | 98 | 1019.1 |
| 20260502060140 | 31 | 95 | 0.0 | 0.0 | 0.00 | 0.00 | 0.00 | 97 | 1019.1 |
| 20260502055637 | 31 | 95 | 0.0 | 0.0 | 0.00 | 0.00 | 0.00 | 97 | 1019.0 |
| 20260502055135 | 32 | 95 | 0.0 | 0.0 | 0.00 | 0.00 | 0.00 | 97 | 1019.0 |
| 20260502054634 | 32 | 94 | 0.0 | 0.0 | 0.00 | 0.00 | 0.00 | 97 | 1019.0 |
| 20260502054131 | 32 | 92 | 0.0 | 0.0 | 0.00 | 0.00 | 0.00 | 97 | 1018.9 |
| 20260502053628 | 32 | 97 | 0.0 | 0.0 | 0.00 | 0.00 | 0.00 | 96 | 1019.2 |
| 20260502053125 | 32 | 95 | 0.0 | 0.0 | 0.00 | 0.00 | 0.00 | 96 | 1018.9 |
| 20260502052624 | 32 | 97 | 0.0 | 0.0 | 0.00 | 0.00 | 0.00 | 96 | 1019.2 |
| 20260502052122 | 32 | 96 | 0.0 | 0.0 | 0.00 | 0.00 | 0.00 | 96 | 1019.1 |
| 20260502051619 | 32 | 96 | 0.0 | 0.0 | 0.00 | 0.00 | 0.00 | 95 | 1019.1 |
| 20260502051117 | 32 | 96 | 0.0 | 0.0 | 0.00 | 0.00 | 0.00 | 95 | 1019.0 |
| 20260502050614 | 32 | 95 | 0.0 | 0.0 | 0.00 | 0.00 | 0.00 | 95 | 1019.0 |
| 20260502050110 | 32 | 95 | 0.0 | 0.0 | 0.00 | 0.00 | 0.00 | 95 | 1019.0 |
| 20260502045606 | 32 | 95 | 0.0 | 0.0 | 0.00 | 0.01 | 0.01 | 95 | 1019.0 |
| 20260502045104 | 32 | 95 | 0.0 | 0.0 | 0.00 | 0.01 | 0.01 | 95 | 1019.3 |
| 20260502044600 | 33 | 96 | 0.0 | 0.0 | 0.00 | 0.01 | 0.01 | 94 | 1019.3 |
| 20260502044057 | 33 | 96 | 0.0 | 0.0 | 0.00 | 0.01 | 0.01 | 94 | 1019.1 |
| 20260502043555 | 33 | 94 | 0.0 | 0.0 | 0.00 | 0.01 | 0.01 | 94 | 1019.2 |
| 20260502043050 | 33 | 96 | 0.0 | 0.0 | 0.00 | 0.01 | 0.01 | 94 | 1019.2 |
| 20260502042545 | 33 | 97 | 0.0 | 0.0 | 0.00 | 0.01 | 0.01 | 93 | 1019.1 |
| 20260502042043 | 33 | 102 | 0.0 | 0.0 | 0.00 | 0.01 | 0.01 | 93 | 1019.1 |
| 20260502041541 | 33 | 96 | 0.0 | 0.0 | 0.00 | 0.01 | 0.01 | 92 | 1019.2 |
| 20260502041038 | 33 | 96 | 0.0 | 0.0 | 0.00 | 0.01 | 0.01 | 92 | 1018.9 |
| 20260502040534 | 33 | 96 | 0.0 | 0.0 | 0.00 | 0.01 | 0.01 | 91 | 1019.1 |
| 20260502040031 | 33 | 95 | 0.0 | 0.0 | 0.00 | 0.01 | 0.01 | 91 | 1019.0 |
| 20260502035527 | 34 | 95 | 0.0 | 0.0 | 0.00 | 0.01 | 0.01 | 90 | 1019.0 |
| 20260502035025 | 34 | 96 | 0.0 | 0.0 | 0.00 | 0.01 | 0.01 | 89 | 1018.9 |
| 20260502034523 | 34 | 95 | 0.0 | 0.0 | 0.00 | 0.01 | 0.01 | 89 | 1018.7 |
| 20260502034021 | 34 | 96 | 0.0 | 0.0 | 0.00 | 0.01 | 0.01 | 88 | 1019.0 |
| 20260502033519 | 35 | 96 | 0.0 | 0.0 | 0.00 | 0.01 | 0.01 | 88 | 1018.7 |
| 20260502033016 | 35 | 96 | 0.0 | 0.0 | 0.00 | 0.01 | 0.01 | 87 | 1018.8 |
| 20260502032511 | 35 | 95 | 0.0 | 0.0 | 0.00 | 0.01 | 0.01 | 87 | 1018.7 |
| 20260502032009 | 36 | 96 | 0.0 | 0.0 | 0.00 | 0.01 | 0.01 | 86 | 1018.8 |
| 20260502031507 | 36 | 95 | 0.0 | 0.0 | 0.00 | 0.01 | 0.01 | 85 | 1019.0 |
| 20260502031004 | 36 | 95 | 0.0 | 0.0 | 0.00 | 0.01 | 0.01 | 84 | 1018.7 |
| 20260502030503 | 37 | 96 | 0.0 | 0.0 | 0.00 | 0.01 | 0.01 | 84 | 1018.8 |
| 20260502030000 | 37 | 91 | 0.0 | 0.0 | 0.00 | 0.01 | 0.01 | 83 | 1018.7 |
| 20260502025457 | 37 | 89 | 0.0 | 0.9 | 0.00 | 0.01 | 0.01 | 83 | 1018.6 |
| 20260502024955 | 37 | 86 | 0.0 | 0.0 | 0.00 | 0.01 | 0.01 | 83 | 1018.8 |
| 20260502024452 | 37 | 91 | 0.0 | 0.0 | 0.00 | 0.01 | 0.01 | 83 | 1018.7 |
| 20260502023951 | 37 | 79 | 0.0 | 0.9 | 0.00 | 0.01 | 0.01 | 83 | 1018.5 |
| 20260502023448 | 37 | 88 | 0.9 | 1.7 | 0.00 | 0.01 | 0.01 | 83 | 1018.5 |
| 20260502022945 | 37 | 67 | 0.9 | 0.9 | 0.00 | 0.01 | 0.01 | 83 | 1018.5 |
| 20260502022441 | 38 | 84 | 0.9 | 0.9 | 0.00 | 0.01 | 0.01 | 83 | 1018.6 |
| 20260502021939 | 38 | 81 | 0.9 | 2.6 | 0.00 | 0.01 | 0.01 | 82 | 1018.5 |
| 20260502021436 | 38 | 73 | 0.9 | 1.7 | 0.00 | 0.01 | 0.01 | 82 | 1018.4 |
| 20260502020933 | 38 | 52 | 2.6 | 2.6 | 0.00 | 0.01 | 0.01 | 82 | 1018.4 |
| 20260502020431 | 38 | 88 | 1.7 | 2.6 | 0.00 | 0.01 | 0.01 | 81 | 1018.1 |
| 20260502015927 | 39 | 65 | 0.9 | 1.7 | 0.00 | 0.01 | 0.01 | 80 | 1017.9 |
| 20260502015425 | 39 | 80 | 0.9 | 1.7 | 0.00 | 0.01 | 0.01 | 78 | 1018.1 |
| 20260502014922 | 39 | 60 | 1.7 | 1.7 | 0.00 | 0.01 | 0.01 | 76 | 1018.2 |
| 20260502014419 | 39 | 77 | 0.0 | 1.7 | 0.00 | 0.01 | 0.01 | 75 | 1018.1 |
| 20260502013915 | 39 | 84 | 0.9 | 1.7 | 0.00 | 0.01 | 0.01 | 74 | 1017.9 |
| 20260502013410 | 40 | 76 | 0.9 | 5.2 | 0.00 | 0.01 | 0.01 | 74 | 1018.0 |
| 20260502012907 | 40 | 62 | 1.7 | 1.7 | 0.00 | 0.01 | 0.01 | 74 | 1017.8 |
| 20260502012405 | 40 | 73 | 0.9 | 1.7 | 0.00 | 0.01 | 0.01 | 74 | 1017.7 |
| 20260502011903 | 40 | 88 | 0.9 | 4.3 | 0.00 | 0.01 | 0.01 | 74 | 1017.4 |
| 20260502011358 | 40 | 48 | 1.7 | 1.7 | 0.00 | 0.01 | 0.01 | 74 | 1017.7 |
| 20260502010855 | 41 | 43 | 1.7 | 2.6 | 0.00 | 0.01 | 0.01 | 74 | 1017.3 |
| 20260502010352 | 41 | 39 | 1.7 | 2.6 | 0.00 | 0.01 | 0.01 | 75 | 1017.2 |
| 20260502005849 | 41 | 108 | 0.9 | 4.3 | 0.00 | 0.01 | 0.01 | 75 | 1017.2 |
| 20260502005347 | 42 | 46 | 1.7 | 2.6 | 0.00 | 0.01 | 0.01 | 74 | 1017.3 |
| 20260502004844 | 42 | 79 | 0.9 | 2.6 | 0.00 | 0.01 | 0.01 | 74 | 1017.2 |
| 20260502004340 | 42 | 27 | 1.7 | 5.2 | 0.00 | 0.01 | 0.01 | 74 | 1017.1 |
| 20260502003838 | 43 | 41 | 2.6 | 4.3 | 0.00 | 0.01 | 0.01 | 74 | 1017.1 |
| 20260502003334 | 43 | 102 | 0.9 | 2.6 | 0.00 | 0.01 | 0.01 | 74 | 1017.0 |
| 20260502002831 | 44 | 58 | 0.9 | 4.3 | 0.00 | 0.01 | 0.01 | 73 | 1016.8 |
| 20260502002328 | 44 | 80 | 1.7 | 2.6 | 0.00 | 0.01 | 0.01 | 73 | 1016.9 |
| 20260502001825 | 44 | 66 | 1.7 | 2.6 | 0.00 | 0.01 | 0.01 | 74 | 1016.7 |
| 20260502001323 | 45 | 87 | 0.9 | 0.9 | 0.00 | 0.01 | 0.01 | 74 | 1016.7 |
| 20260502000821 | 45 | 58 | 0.9 | 1.7 | 0.00 | 0.01 | 0.01 | 74 | 1016.8 |
| 20260502000319 | 45 | 75 | 0.9 | 0.9 | 0.00 | 0.01 | 0.01 | 74 | 1016.8 |
| 20260501235814 | 45 | 75 | 1.7 | 1.7 | 0.00 | 0.01 | 0.01 | 74 | 1016.7 |
| 20260501235310 | 45 | 65 | 0.9 | 1.7 | 0.00 | 0.01 | 0.01 | 73 | 1016.7 |
| 20260501234805 | 45 | 79 | 0.9 | 0.9 | 0.00 | 0.01 | 0.01 | 74 | 1016.7 |
| 20260501234303 | 45 | 52 | 0.9 | 1.7 | 0.00 | 0.01 | 0.01 | 73 | 1016.5 |
| 20260501233801 | 45 | 123 | 0.9 | 1.7 | 0.00 | 0.01 | 0.01 | 73 | 1016.6 |
| 20260501233258 | 46 | 94 | 1.7 | 1.7 | 0.00 | 0.01 | 0.01 | 72 | 1016.6 |
| 20260501232754 | 45 | 80 | 1.7 | 2.6 | 0.00 | 0.01 | 0.01 | 71 | 1016.7 |